Retour au catalogue

PSLV DEB

LostSSO
NORAD 35537·DEBRIS·🇮🇳 India

Lancé Oct 22, 2001 depuis Satish Dhawan Space Centre

Loading…

Prochains Passages (prochaines 24 heures)

TLE

PériméSource: Space-Track

Époque: Apr 2, 2011, 03:37 UTC

1 35537U 01049QM  11092.15069828  .00000197  00000-0  75856-4 0  9991
2 35537  98.2031  67.3711 0090567  49.9616 311.3399 14.37725730338478

Suivez PSLV DEB en temps réel avec AllMySat

Download on the App Store